Home   Weather   Baden-Baden   Past weeks

Flag for Germany Past Weather in Baden-Baden, Baden-Württemberg, Germany — Yesterday and Last 2 Weeks

Now
28 °F

Sunny.


Feels Like: 15 °F
Forecast: 15 / 26 °F
Wind: 21 mph from Northeast

Location: Karlsruhe - Baden Wurttemberg

Current Time: Jan 18, 2017 at 11:15:37 am

Latest Report: Jan 18, 2017 at 10:20 am


Visibility: 10 mi

Pressure: 30.54 "Hg

Humidity: 64%

Dew Point: 18 °F

Location of Baden-BadenLocation

Past Weather in Baden-Baden — Graph

°F

Baden-Baden Temperature Yesterday

Maximum temperature yesterday: 32 °F (at 1:20 pm)
Minimum temperature yesterday: 23 °F (at 7:20 am)
Average temperature yesterday: 28 °F

High & Low Weather Summary for the Past Weeks

 TemperatureHumidityPressure
High46 °F (Jan 12, 11:20 pm)100% (Jan 3, 9:20 am)30.72 "Hg (Jan 3, 9:20 am)
Low9 °F (Jan 7, 1:50 am)55% (Jan 17, 3:50 pm)29.33 "Hg (Jan 12, 11:50 pm)
Average31 °F90%30.21 "Hg
* Reported Jan 3 9:20 am — Jan 18 9:50 am, Baden-Baden, Weather by CustomWeather, © 2017

Note: Actual official high and low records may vary slightly from our data, if they occured in-between our weather recording intervals... More about our weather records

Advertising

Baden-Baden Weather History for the Previous 24 Hours

Scroll right to see more
 ConditionsComfort  
Time TempWeatherWind HumidityBarometerVisibility
9:50 am
Wed, Jan 18
28 °FSunny.22 mph64%30.54 "Hg10 mi
9:20 am27 °FSunny.23 mph69%30.54 "Hg10 mi
8:50 am27 °FSunny.25 mph69%30.54 "Hg10 mi
8:20 am27 °FSunny.21 mph69%30.51 "Hg10 mi
7:50 am27 °FClear.20 mph69%30.51 "Hg10 mi
7:20 am27 °FClear.18 mph69%30.51 "Hg10 mi
6:50 am27 °FClear.17 mph74%30.51 "Hg10 mi
6:20 am27 °FClear.17 mph74%30.51 "Hg10 mi
5:50 am27 °FClear.17 mph69%30.51 "Hg10 mi
5:20 am27 °FClear.18 mph69%30.51 "Hg10 mi
4:50 am27 °FClear.18 mph69%30.51 "Hg10 mi
3:20 am25 °FClear.15 mph80%30.51 "Hg10 mi
11:50 pm
Tue, Jan 17
27 °FClear.15 mph74%30.54 "Hg10 mi
11:20 pm27 °FPassing clouds.16 mph80%30.51 "HgN/A
10:50 pm27 °FPassing clouds.14 mph80%30.54 "HgN/A
10:20 pm27 °FPassing clouds.14 mph80%30.54 "HgN/A
9:50 pm27 °FPassing clouds.15 mph80%30.54 "HgN/A
9:20 pm27 °FPassing clouds.15 mph80%30.54 "HgN/A
8:50 pm27 °FPassing clouds.15 mph80%30.51 "HgN/A
8:20 pm28 °FPassing clouds.16 mph74%30.51 "HgN/A
7:50 pm28 °FPassing clouds.17 mph74%30.51 "HgN/A
7:20 pm30 °FPassing clouds.14 mph69%30.51 "HgN/A
6:50 pm30 °FPassing clouds.17 mph69%30.51 "HgN/A
6:20 pm30 °FPassing clouds.17 mph69%30.51 "HgN/A
5:50 pm30 °FPassing clouds.16 mph69%30.51 "HgN/A
5:20 pm30 °FPassing clouds.16 mph69%30.51 "HgN/A
4:50 pm30 °FPartly sunny.16 mph69%30.48 "HgN/A
4:20 pm30 °FPartly sunny.17 mph59%30.48 "HgN/A
3:50 pm32 °FPartly sunny.20 mph55%30.48 "HgN/A
3:20 pm32 °FPartly sunny.16 mph60%30.48 "HgN/A
2:50 pm30 °FPartly sunny.16 mph64%30.48 "HgN/A
2:20 pm32 °FPartly sunny.18 mph60%30.48 "HgN/A
1:50 pm32 °FScattered clouds.15 mph64%30.48 "HgN/A
1:20 pm32 °FScattered clouds.16 mph64%30.48 "HgN/A
12:50 pm30 °FScattered clouds.17 mph69%30.48 "HgN/A
12:20 pm30 °FScattered clouds.18 mph69%30.48 "HgN/A
11:50 am30 °FPassing clouds.16 mph75%30.51 "HgN/A
11:20 am28 °FPassing clouds.16 mph80%30.51 "HgN/A
Weather by CustomWeather, © 2017

See weather overviewHow to use our weather pages